Location: Wellington
(41.3000°S, 174.8000°E)
Time: 23:53:16
(UTC+13:00)

ISS - Visible Passes

Search period start: 22 October 2019 00:00
Search period end: 01 November 2019 00:00
Orbit: 411 x 421 km, 51.6° (Epoch: 22 October)

Date Brightness Start Highest point End Pass type
(mag) Time Alt. Az. Time Alt. Az. Time Alt. Az.
22 Oct -1.3 21:47:40 10° WSW 21:50:23 22° SSW 21:53:07 10° SE visible
23 Oct -1.7 20:58:38 10° W 21:01:38 28° SSW 21:04:39 10° SE visible
23 Oct -0.8 22:37:11 10° SW 22:39:13 15° S 22:39:40 14° S visible
24 Oct -0.9 21:48:10 10° SW 21:50:22 16° S 21:52:35 10° SSE visible
24 Oct -0.2 23:25:47 10° SSW 23:26:02 11° SSW 23:26:02 11° SSW visible
25 Oct -1.0 20:59:04 10° WSW 21:01:31 18° SSW 21:04:00 10° SSE visible
25 Oct -0.9 22:37:09 10° SSW 22:39:16 15° S 22:39:23 15° S visible
26 Oct -0.9 21:48:24 10° SW 21:50:23 14° S 21:52:22 10° SE visible
26 Oct -0.3 23:25:08 10° SW 23:25:33 12° SSW 23:25:33 12° SSW visible
27 Oct -0.9 20:59:26 10° SW 21:01:29 15° S 21:03:31 10° SSE visible
27 Oct -1.2 22:36:37 10° SSW 22:38:46 19° S 22:38:46 19° S visible
28 Oct -1.2 21:48:03 10° SSW 21:50:20 16° S 21:51:58 13° SE visible
28 Oct -0.4 23:24:23 10° SW 23:24:51 13° SW 23:24:51 13° SW visible
29 Oct -1.0 20:59:22 10° SSW 21:01:26 15° S 21:03:30 10° SE visible
29 Oct -1.7 22:35:51 10° SW 22:38:01 26° S 22:38:01 26° S visible
30 Oct -1.9 21:47:20 10° SW 21:50:09 23° SSE 21:51:11 20° SE visible
30 Oct -0.5 23:23:45 10° WSW 23:24:04 12° WSW 23:24:04 12° WSW visible
31 Oct -1.5 20:58:46 10° SSW 21:01:18 19° SSE 21:03:48 10° ESE visible
31 Oct -2.1 22:35:06 10° SW 22:37:14 35° SW 22:37:14 35° SW visible
